#timestamp,LO_Frequency,Hit 
1502398815.4,286047004.3,N
1502398835.2,286047000.2,N
1502398855.0,286047000.0,N
1502398855.9,286047000.0,N
1502398875.8,286046998.6,N
1502398895.6,286046999.6,N
1502398915.4,286046997.0,N
1502398935.3,286046995.6,N
1502398955.1,286046998.0,N
1502398956.0,286046998.0,N
1502398975.8,286046996.5,N
1502398995.7,286046999.6,N
1502399015.5,286046997.6,N
1502399035.3,286046999.3,N
1502399055.1,286046997.7,N
1502399075.9,286046996.9,N
1502399095.7,286046998.4,N
1502399115.5,286046999.2,N
1502399135.4,286046994.9,N
1502399155.2,286046996.5,N
1502399175.0,286046999.3,N
1502399175.9,286046999.3,N
1502399195.8,286046998.4,N
1502399215.6,286047001.0,N
1502399235.4,286046998.5,N
1502399255.3,286047001.0,N
1502399275.1,286047000.7,N
1502399276.0,286047000.7,N
1502399295.8,286046998.1,N
1502399315.7,286046998.1,N
1502399335.5,286046998.6,N
1502399355.3,286047000.5,N
1502399375.2,286047000.7,N
1502399395.9,286046998.1,N
1502399415.7,286046996.5,N
1502399435.6,286046996.0,N
1502399455.4,286046997.6,N
1502399475.2,286046998.0,N
1502399495.1,286046994.9,P
1502399496.0,286046994.9,N
1502399515.8,286046998.8,N
1502399535.6,286046998.6,N
1502399555.5,286047000.3,N
1502399575.3,286046998.9,N
1502399595.1,286046998.8,N
1502399615.8,286047002.7,N
1502399635.7,286047002.4,N
1502399655.5,286047004.2,N
1502399675.3,286047002.0,N
1502399695.2,286047005.3,N
1502399715.0,286047002.0,N
1502399715.9,286047002.0,N
1502399735.7,286047002.5,N
1502399755.6,286047001.0,N
1502399775.4,286047002.5,N
1502399795.2,286047003.7,N
1502399815.1,286047001.4,N
1502399816.0,286047001.4,N
1502399835.8,286047004.1,N
1502399855.6,286047002.9,N
1502399875.5,286047002.9,N
1502399895.3,286047007.2,N
1502399915.1,286047003.3,N
1502399935.8,286046999.9,N
1502399955.7,286046999.3,N
1502399975.5,286046998.6,N
1502399995.3,286046999.0,N
1502400015.2,286047002.3,N
1502400035.9,286047004.3,N
1502400055.7,286046999.8,N
1502400075.6,286046999.7,N
1502400095.4,286046998.2,N
1502400115.2,286046999.1,N
1502400135.1,286047000.5,N
1502400136.0,286047000.5,N
1502400155.8,286047001.2,N
1502400175.6,286047001.1,N
1502400195.5,286046998.7,N
1502400215.3,286046998.1,N
1502400235.1,286046998.2,N
1502400255.8,286046996.5,N
1502400275.7,286047000.9,N
1502400295.5,286046998.6,N
1502400315.3,286046999.2,N
1502400335.2,286047000.5,N
1502400355.9,286047000.2,N
1502400375.7,286047000.1,N
1502400395.6,286047001.6,N
1502400415.4,286047006.0,N
1502400435.2,286047003.5,N
1502400455.1,286047002.3,N
1502400456.0,286047002.3,N
1502400475.8,286047002.0,N
1502400495.6,286047001.4,N
1502400515.5,286047002.1,N
1502400535.3,286047002.0,N
1502400555.1,286047001.3,N
1502400575.9,286047004.1,N
1502400595.7,286047002.4,N
1502400615.5,286047001.5,N
1502400635.3,286047003.5,N
1502400655.2,286047002.9,N
1502400675.0,286047006.0,P
1502400675.9,286047006.0,N
1502400695.8,286047003.6,N
1502400715.6,286047003.5,N
1502400735.4,286047001.5,N
1502400755.2,286047000.1,N
1502400775.1,286047002.3,N
1502400776.0,286047002.3,N
1502400795.8,286047002.0,N
1502400815.6,286047000.8,N
1502400835.5,286046999.9,N
1502400855.3,286047000.8,N
1502400875.1,286047001.4,N
1502400895.9,286046999.9,N
1502400915.7,286047001.3,N
1502400935.5,286047003.5,N
1502400955.4,286047004.2,N
1502400975.2,286047002.5,N
1502400995.0,286047002.1,N
1502400995.9,286047002.1,N
1502401015.8,286047001.8,N
1502401035.6,286047002.1,N
1502401055.4,286047003.8,N
1502401075.2,286047003.8,N
1502401095.1,286047002.2,N
1502401096.0,286047002.2,N
1502401115.8,286047001.9,N
1502401135.6,286047003.6,N
1502401155.5,286047005.9,P
1502401175.3,286047002.8,N
1502401195.1,286047000.8,N
1502401215.9,286047002.3,N
1502401235.7,286047000.6,N
1502401255.5,286046999.6,N
1502401275.4,286046999.0,N
1502401295.2,286046999.9,N
1502401315.0,286046999.9,N
1502401315.9,286046999.9,N
1502401335.8,286047001.2,N
1502401355.6,286046998.7,N
1502401375.4,286046998.1,N
1502401395.3,286046996.7,N
1502401415.1,286046997.1,N
1502401416.0,286046997.1,N
1502401435.8,286046997.9,N
1502401455.7,286046995.0,N
1502401475.5,286046997.6,N
1502401495.3,286046997.7,N
1502401515.2,286046996.6,N
1502401535.9,286046996.8,N
1502401555.7,286046999.0,N
1502401575.5,286046998.6,N
1502401595.4,286046999.3,N
1502401615.2,286046995.1,N
1502401635.0,286046995.3,N
1502401635.9,286046995.3,N
1502401655.8,286046995.7,N
1502401675.6,286046997.6,N
1502401695.4,286046996.5,N
1502401715.3,286046996.9,N
1502401735.1,286046998.1,N
1502401755.8,286046999.9,N
1502401775.7,286046998.5,N
1502401795.5,286047002.4,N
1502401815.3,286047002.2,N
1502401835.2,286047001.1,N
1502401855.9,286047002.2,N
1502401875.7,286047002.5,N
1502401895.6,286047002.6,N
1502401915.4,286047001.8,N
1502401935.2,286046999.9,N
1502401955.1,286047000.8,N
1502401956.0,286047000.8,N
1502401975.8,286046998.3,N
1502401995.6,286046998.1,N
1502402015.5,286047001.0,N
1502402035.3,286047001.5,N
1502402055.1,286047002.7,N
1502402075.8,286047002.5,N
1502402095.7,286047004.3,N
1502402115.5,286047005.9,N
1502402135.3,286047005.9,N
1502402155.2,286047001.7,N
1502402175.9,286047003.9,N
1502402195.7,286047001.5,N
1502402215.6,286047002.6,N
1502402235.4,286047005.5,N
1502402255.2,286047005.8,N
1502402275.1,286047007.1,N
1502402276.0,286047007.1,N
1502402295.8,286047005.4,N
1502402315.6,286047007.6,P
1502402335.5,286047004.8,N
1502402355.3,286047007.5,P
1502402375.1,286047007.6,P
1502402395.9,286047000.0,N
